Time,TemperatureF,DewpointF,PressureIn,WindDirection,WindDirectionDegrees,WindSpeedMPH,WindSpeedGustMPH,Humidity,HourlyPrecipIn,Conditions,Clouds,dailyrainin,SoftwareType,DateUTC
2013-05-04 00:00:00,47.0,45.4,30.06,NW,319,0.0,16.0,94,0.00,,,0.02,Wunderground v.1.15,2013-05-04 05:00:00,
2013-05-04 00:05:00,47.1,45.2,30.06,NW,319,0.0,16.0,93,0.00,,,0.00,Wunderground v.1.15,2013-05-04 05:05:00,
2013-05-04 00:15:00,46.7,44.8,30.06,NW,319,0.0,0.0,93,0.00,,,0.00,Wunderground v.1.15,2013-05-04 05:15:00,
2013-05-04 00:25:00,46.3,44.7,30.06,WNW,301,0.0,0.0,94,0.00,,,0.00,Wunderground v.1.15,2013-05-04 05:25:00,
2013-05-04 00:30:00,46.1,44.5,30.06,WNW,301,0.0,0.0,94,0.00,,,0.00,Wunderground v.1.15,2013-05-04 05:30:00,
2013-05-04 00:35:00,46.0,44.4,30.05,WNW,301,0.0,0.0,94,0.00,,,0.00,Wunderground v.1.15,2013-05-04 05:35:00,
2013-05-04 00:40:00,45.8,44.2,30.05,WNW,301,0.0,0.0,94,0.00,,,0.00,Wunderground v.1.15,2013-05-04 05:40:00,
2013-05-04 00:45:00,45.7,44.4,30.05,WNW,301,0.0,0.0,95,0.00,,,0.00,Wunderground v.1.15,2013-05-04 05:45:00,
2013-05-04 00:50:00,45.7,44.4,30.05,WNW,301,0.0,0.0,95,0.00,,,0.00,Wunderground v.1.15,2013-05-04 05:50:00,
2013-05-04 01:00:00,45.8,45.0,30.04,WNW,301,0.0,0.0,97,0.00,,,0.00,Wunderground v.1.15,2013-05-04 06:00:00,
2013-05-04 01:05:00,46.0,44.9,30.04,WNW,301,0.0,0.0,96,0.00,,,0.00,Wunderground v.1.15,2013-05-04 06:05:00,
2013-05-04 01:10:00,45.9,44.8,30.04,WNW,301,0.0,0.0,96,0.00,,,0.00,Wunderground v.1.15,2013-05-04 06:10:00,
2013-05-04 01:15:00,45.7,44.6,30.03,WNW,301,0.0,0.0,96,0.00,,,0.00,Wunderground v.1.15,2013-05-04 06:15:00,
2013-05-04 01:20:00,45.3,44.2,30.03,WNW,301,0.0,0.0,96,0.00,,,0.00,Wunderground v.1.15,2013-05-04 06:20:00,
2013-05-04 01:30:00,44.8,43.7,30.03,WNW,301,0.0,0.0,96,0.00,,,0.00,Wunderground v.1.15,2013-05-04 06:30:00,
2013-05-04 01:35:00,44.7,43.9,30.02,WNW,301,0.0,0.0,97,0.00,,,0.00,Wunderground v.1.15,2013-05-04 06:35:00,
2013-05-04 01:40:00,44.7,43.9,30.02,WNW,301,0.0,0.0,97,0.00,,,0.00,Wunderground v.1.15,2013-05-04 06:40:00,
2013-05-04 01:45:00,44.4,43.6,30.02,WNW,301,0.0,0.0,97,0.00,,,0.00,Wunderground v.1.15,2013-05-04 06:45:00,
2013-05-04 01:50:00,44.6,44.1,30.02,WNW,301,0.0,0.0,98,0.00,,,0.00,Wunderground v.1.15,2013-05-04 06:50:00,
2013-05-04 01:55:00,44.7,44.2,30.02,WNW,301,0.0,0.0,98,0.00,,,0.00,Wunderground v.1.15,2013-05-04 06:55:00,
2013-05-04 02:00:00,44.7,44.2,30.02,WNW,301,0.0,0.0,98,0.00,,,0.00,Wunderground v.1.15,2013-05-04 07:00:00,
2013-05-04 02:05:00,44.6,44.1,30.02,WNW,301,0.0,0.0,98,0.00,,,0.00,Wunderground v.1.15,2013-05-04 07:05:00,
2013-05-04 02:10:00,44.6,44.1,30.01,WNW,301,0.0,0.0,98,0.00,,,0.00,Wunderground v.1.15,2013-05-04 07:10:00,
2013-05-04 02:15:00,44.2,43.4,30.01,WNW,301,0.0,0.0,97,0.00,,,0.00,Wunderground v.1.15,2013-05-04 07:15:00,
2013-05-04 02:20:00,44.1,43.6,30.01,WNW,301,0.0,0.0,98,0.00,,,0.00,Wunderground v.1.15,2013-05-04 07:20:00,
2013-05-04 02:25:00,44.3,43.8,30.00,WNW,301,0.0,0.0,98,0.00,,,0.00,Wunderground v.1.15,2013-05-04 07:25:00,
2013-05-04 02:35:00,44.3,43.8,30.00,WNW,301,0.0,0.0,98,0.00,,,0.00,Wunderground v.1.15,2013-05-04 07:35:00,
2013-05-04 02:40:00,44.4,43.9,30.00,WNW,301,0.0,0.0,98,0.00,,,0.00,Wunderground v.1.15,2013-05-04 07:40:00,
2013-05-04 02:45:00,44.3,43.5,30.00,WNW,301,0.0,0.0,97,0.00,,,0.00,Wunderground v.1.15,2013-05-04 07:45:00,
2013-05-04 02:50:00,44.2,43.4,30.00,WNW,301,0.0,0.0,97,0.00,,,0.00,Wunderground v.1.15,2013-05-04 07:50:00,
2013-05-04 02:55:00,44.2,43.4,30.00,WNW,301,0.0,0.0,97,0.00,,,0.00,Wunderground v.1.15,2013-05-04 07:55:00,
2013-05-04 03:05:00,44.1,43.3,30.00,WNW,301,0.0,0.0,97,0.00,,,0.00,Wunderground v.1.15,2013-05-04 08:05:00,
2013-05-04 03:10:00,43.6,42.5,30.00,WNW,301,0.0,0.0,96,0.00,,,0.00,Wunderground v.1.15,2013-05-04 08:10:00,
2013-05-04 03:15:00,43.6,43.1,30.00,WNW,301,0.0,0.0,98,0.00,,,0.00,Wunderground v.1.15,2013-05-04 08:15:00,
2013-05-04 03:20:00,43.6,43.1,30.00,WNW,301,0.0,0.0,98,0.00,,,0.00,Wunderground v.1.15,2013-05-04 08:20:00,
2013-05-04 03:25:00,43.7,43.2,30.00,WNW,301,0.0,0.0,98,0.00,,,0.00,Wunderground v.1.15,2013-05-04 08:25:00,
2013-05-04 03:30:00,43.7,43.2,30.00,WNW,301,0.0,0.0,98,0.00,,,0.00,Wunderground v.1.15,2013-05-04 08:30:00,
2013-05-04 03:40:00,43.6,43.1,30.00,WNW,301,0.0,0.0,98,0.00,,,0.00,Wunderground v.1.15,2013-05-04 08:40:00,
2013-05-04 03:45:00,43.5,43.0,30.00,WNW,301,0.0,0.0,98,0.00,,,0.00,Wunderground v.1.15,2013-05-04 08:45:00,
2013-05-04 03:50:00,43.5,43.0,30.00,WNW,301,0.0,0.0,98,0.00,,,0.00,Wunderground v.1.15,2013-05-04 08:50:00,
2013-05-04 03:55:00,43.5,43.0,30.01,WNW,301,0.0,0.0,98,0.00,,,0.00,Wunderground v.1.15,2013-05-04 08:55:00,
2013-05-04 04:00:00,43.4,42.9,30.01,WNW,301,0.0,0.0,98,0.00,,,0.00,Wunderground v.1.15,2013-05-04 09:00:00,
2013-05-04 04:10:00,43.3,42.8,30.01,WNW,301,0.0,0.0,98,0.00,,,0.00,Wunderground v.1.15,2013-05-04 09:10:00,
2013-05-04 04:15:00,43.1,42.6,30.00,WNW,301,0.0,0.0,98,0.00,,,0.00,Wunderground v.1.15,2013-05-04 09:15:00,
2013-05-04 04:20:00,42.8,42.3,30.00,WNW,301,0.0,0.0,98,0.00,,,0.00,Wunderground v.1.15,2013-05-04 09:20:00,
2013-05-04 04:25:00,42.7,42.2,30.00,WNW,301,0.0,0.0,98,0.00,,,0.00,Wunderground v.1.15,2013-05-04 09:25:00,
2013-05-04 04:30:00,42.7,42.2,30.00,WNW,301,0.0,0.0,98,0.00,,,0.00,Wunderground v.1.15,2013-05-04 09:30:00,
2013-05-04 04:35:00,42.8,42.3,30.00,WNW,301,0.0,0.0,98,0.00,,,0.00,Wunderground v.1.15,2013-05-04 09:35:00,
2013-05-04 04:45:00,42.6,42.1,30.01,SE,134,0.0,1.0,98,0.00,,,0.00,Wunderground v.1.15,2013-05-04 09:45:00,
2013-05-04 04:50:00,42.3,41.8,30.00,SE,128,0.0,1.0,98,0.00,,,0.00,Wunderground v.1.15,2013-05-04 09:50:00,
2013-05-04 04:55:00,42.2,41.7,30.00,SE,128,0.0,1.0,98,0.00,,,0.00,Wunderground v.1.15,2013-05-04 09:55:00,
2013-05-04 05:00:00,42.3,41.8,30.00,SE,128,0.0,0.0,98,0.00,,,0.00,Wunderground v.1.15,2013-05-04 10:00:00,
2013-05-04 05:05:00,42.4,41.9,30.00,SE,128,0.0,0.0,98,0.00,,,0.00,Wunderground v.1.15,2013-05-04 10:05:00,
2013-05-04 05:15:00,42.1,41.6,30.00,ESE,110,0.0,0.0,98,0.00,,,0.00,Wunderground v.1.15,2013-05-04 10:15:00,
2013-05-04 05:20:00,42.0,41.5,30.01,SE,141,0.0,0.0,98,0.00,,,0.00,Wunderground v.1.15,2013-05-04 10:20:00,
2013-05-04 05:25:00,42.0,41.5,30.01,SE,141,0.0,0.0,98,0.00,,,0.00,Wunderground v.1.15,2013-05-04 10:25:00,
2013-05-04 05:30:00,42.0,41.5,30.01,ESE,116,0.0,1.0,98,0.00,,,0.00,Wunderground v.1.15,2013-05-04 10:30:00,
2013-05-04 05:35:00,41.9,41.4,30.00,ESE,116,0.0,1.0,98,0.00,,,0.00,Wunderground v.1.15,2013-05-04 10:35:00,
2013-05-04 05:40:00,41.8,41.3,30.00,ESE,116,0.0,0.0,98,0.00,,,0.00,Wunderground v.1.15,2013-05-04 10:40:00,
2013-05-04 05:45:00,42.0,41.7,30.00,ESE,116,0.0,0.0,99,0.00,,,0.00,Wunderground v.1.15,2013-05-04 10:45:00,
2013-05-04 05:50:00,42.0,41.7,30.01,ESE,116,0.0,0.0,99,0.00,,,0.00,Wunderground v.1.15,2013-05-04 10:50:00,
2013-05-04 05:55:00,41.9,41.4,30.01,ESE,116,0.0,0.0,98,0.00,,,0.00,Wunderground v.1.15,2013-05-04 10:55:00,
2013-05-04 06:00:00,41.8,41.5,30.01,ESE,116,0.0,0.0,99,0.00,,,0.00,Wunderground v.1.15,2013-05-04 11:00:00,
2013-05-04 06:05:00,41.8,41.5,30.01,ESE,116,0.0,0.0,99,0.00,,,0.00,Wunderground v.1.15,2013-05-04 11:05:00,
2013-05-04 06:10:00,41.8,41.5,30.01,ESE,116,0.0,0.0,99,0.00,,,0.00,Wunderground v.1.15,2013-05-04 11:10:00,
2013-05-04 06:20:00,41.9,41.6,30.01,ESE,116,0.0,0.0,99,0.00,,,0.00,Wunderground v.1.15,2013-05-04 11:20:00,
2013-05-04 06:25:00,41.9,41.6,30.01,ESE,116,0.0,0.0,99,0.00,,,0.00,Wunderground v.1.15,2013-05-04 11:25:00,
2013-05-04 06:30:00,41.9,41.6,30.01,ESE,116,0.0,0.0,99,0.00,,,0.00,Wunderground v.1.15,2013-05-04 11:30:00,
2013-05-04 06:35:00,42.1,41.8,30.01,ESE,116,0.0,0.0,99,0.00,,,0.00,Wunderground v.1.15,2013-05-04 11:35:00,
2013-05-04 06:40:00,42.5,42.2,30.02,ESE,116,0.0,0.0,99,0.00,,,0.00,Wunderground v.1.15,2013-05-04 11:40:00,
2013-05-04 06:50:00,43.4,43.1,30.02,ESE,116,0.0,0.0,99,0.00,,,0.00,Wunderground v.1.15,2013-05-04 11:50:00,
2013-05-04 06:55:00,44.1,43.8,30.03,ESE,116,0.0,0.0,99,0.00,,,0.00,Wunderground v.1.15,2013-05-04 11:55:00,
2013-05-04 07:05:00,44.6,44.3,30.03,ESE,116,0.0,0.0,99,0.00,,,0.00,Wunderground v.1.15,2013-05-04 12:05:00,
2013-05-04 07:10:00,45.1,44.8,30.03,ESE,116,0.0,0.0,99,0.00,,,0.00,Wunderground v.1.15,2013-05-04 12:10:00,
2013-05-04 07:15:00,45.9,45.6,30.03,ESE,116,0.0,0.0,99,0.00,,,0.00,Wunderground v.1.15,2013-05-04 12:15:00,
2013-05-04 07:25:00,47.5,47.2,30.03,ESE,116,0.0,0.0,99,0.00,,,0.00,Wunderground v.1.15,2013-05-04 12:25:00,
2013-05-04 07:30:00,47.4,46.6,30.03,SE,131,0.0,0.0,97,0.00,,,0.00,Wunderground v.1.15,2013-05-04 12:30:00,
2013-05-04 07:35:00,47.6,46.8,30.03,SE,131,0.0,0.0,97,0.00,,,0.00,Wunderground v.1.15,2013-05-04 12:35:00,
2013-05-04 07:40:00,48.1,47.3,30.03,SE,127,0.0,0.0,97,0.00,,,0.00,Wunderground v.1.15,2013-05-04 12:40:00,
2013-05-04 07:45:00,49.0,48.2,30.03,SE,127,0.0,0.0,97,0.00,,,0.00,Wunderground v.1.15,2013-05-04 12:45:00,
2013-05-04 07:50:00,49.5,48.1,30.03,SE,127,0.0,1.0,95,0.00,,,0.00,Wunderground v.1.15,2013-05-04 12:50:00,
2013-05-04 08:00:00,52.0,49.5,30.03,SSE,167,0.0,0.0,91,0.00,,,0.00,Wunderground v.1.15,2013-05-04 13:00:00,
2013-05-04 08:05:00,52.5,49.4,30.03,SW,233,0.0,1.0,89,0.00,,,0.00,Wunderground v.1.15,2013-05-04 13:05:00,
2013-05-04 08:10:00,52.4,48.9,30.03,SSE,149,1.0,1.0,88,0.00,,,0.00,Wunderground v.1.15,2013-05-04 13:10:00,
2013-05-04 08:15:00,53.4,48.7,30.03,SW,224,1.0,1.0,84,0.00,,,0.00,Wunderground v.1.15,2013-05-04 13:15:00,
2013-05-04 08:20:00,53.4,48.0,30.03,WSW,254,1.0,1.0,82,0.00,,,0.00,Wunderground v.1.15,2013-05-04 13:20:00,
2013-05-04 08:25:00,53.7,48.0,30.02,SW,231,1.0,1.0,81,0.00,,,0.00,Wunderground v.1.15,2013-05-04 13:25:00,
2013-05-04 08:35:00,54.2,47.5,30.02,WSW,255,1.0,1.0,78,0.00,,,0.00,Wunderground v.1.15,2013-05-04 13:35:00,
2013-05-04 08:40:00,54.5,47.4,30.02,WSW,252,2.0,2.0,77,0.00,,,0.00,Wunderground v.1.15,2013-05-04 13:40:00,
2013-05-04 08:45:00,54.9,47.8,30.02,West,264,2.0,2.0,77,0.00,,,0.00,Wunderground v.1.15,2013-05-04 13:45:00,
2013-05-04 08:50:00,56.2,48.7,30.02,West,262,1.0,2.0,76,0.00,,,0.00,Wunderground v.1.15,2013-05-04 13:50:00,
2013-05-04 08:55:00,55.9,47.0,30.02,West,262,1.0,2.0,72,0.00,,,0.00,Wunderground v.1.15,2013-05-04 13:55:00,
2013-05-04 09:00:00,56.2,47.7,30.02,WSW,248,2.0,2.0,73,0.00,,,0.00,Wunderground v.1.15,2013-05-04 14:00:00,
2013-05-04 09:05:00,57.2,48.6,30.02,WNW,299,2.0,2.0,73,0.00,,,0.00,Wunderground v.1.15,2013-05-04 14:05:00,
2013-05-04 09:10:00,58.1,48.4,30.02,WSW,256,1.0,2.0,70,0.00,,,0.00,Wunderground v.1.15,2013-05-04 14:10:00,
2013-05-04 09:15:00,58.6,48.5,30.02,SW,221,2.0,2.0,69,0.00,,,0.00,Wunderground v.1.15,2013-05-04 14:15:00,
2013-05-04 09:25:00,59.3,46.7,30.03,WSW,244,3.0,3.0,63,0.00,,,0.00,Wunderground v.1.15,2013-05-04 14:25:00,
2013-05-04 09:30:00,59.8,46.7,30.03,West,277,3.0,3.0,62,0.00,,,0.00,Wunderground v.1.15,2013-05-04 14:30:00,
2013-05-04 09:35:00,60.0,47.8,30.03,WSW,245,2.0,5.0,64,0.00,,,0.00,Wunderground v.1.15,2013-05-04 14:35:00,
2013-05-04 09:40:00,60.4,47.3,30.03,West,261,3.0,3.0,62,0.00,,,0.00,Wunderground v.1.15,2013-05-04 14:40:00,
2013-05-04 09:45:00,60.6,45.3,30.03,WSW,243,4.0,9.0,57,0.00,,,0.00,Wunderground v.1.15,2013-05-04 14:45:00,
2013-05-04 09:50:00,60.8,45.5,30.03,South,179,5.0,5.0,57,0.00,,,0.00,Wunderground v.1.15,2013-05-04 14:50:00,
2013-05-04 09:55:00,61.6,46.2,30.03,West,271,5.0,6.0,57,0.00,,,0.00,Wunderground v.1.15,2013-05-04 14:55:00,
2013-05-04 10:00:00,62.1,46.7,30.03,West,264,4.0,4.0,57,0.00,,,0.00,Wunderground v.1.15,2013-05-04 15:00:00,
2013-05-04 10:10:00,62.9,40.6,30.03,WNW,293,5.0,8.0,44,0.00,,,0.00,Wunderground v.1.15,2013-05-04 15:10:00,
2013-05-04 10:15:00,63.2,40.9,30.03,WNW,303,5.0,8.0,44,0.00,,,0.00,Wunderground v.1.15,2013-05-04 15:15:00,
2013-05-04 10:20:00,63.5,39.4,30.03,WSW,255,5.0,7.0,41,0.00,,,0.00,Wunderground v.1.15,2013-05-04 15:20:00,
2013-05-04 10:25:00,63.6,38.8,30.03,WSW,240,5.0,7.0,40,0.00,,,0.00,Wunderground v.1.15,2013-05-04 15:25:00,
2013-05-04 10:30:00,63.7,37.6,30.02,WNW,290,6.0,6.0,38,0.00,,,0.00,Wunderground v.1.15,2013-05-04 15:30:00,
2013-05-04 10:40:00,64.7,39.8,30.02,NW,320,5.0,6.0,40,0.00,,,0.00,Wunderground v.1.15,2013-05-04 15:40:00,
2013-05-04 10:45:00,64.7,39.8,30.02,WSW,238,6.0,6.0,40,0.00,,,0.00,Wunderground v.1.15,2013-05-04 15:45:00,
2013-05-04 10:50:00,64.7,36.4,30.03,SW,224,7.0,7.0,35,0.00,,,0.00,Wunderground v.1.15,2013-05-04 15:50:00,
2013-05-04 10:55:00,65.0,38.1,30.03,West,264,6.0,7.0,37,0.00,,,0.00,Wunderground v.1.15,2013-05-04 15:55:00,
2013-05-04 11:00:00,66.1,41.7,30.03,WNW,294,4.0,4.0,41,0.00,,,0.00,Wunderground v.1.15,2013-05-04 16:00:00,
2013-05-04 11:05:00,66.9,39.1,30.02,WNW,283,3.0,4.0,36,0.00,,,0.00,Wunderground v.1.15,2013-05-04 16:05:00,
2013-05-04 11:15:00,67.0,38.4,30.02,WNW,292,4.0,4.0,35,0.00,,,0.00,Wunderground v.1.15,2013-05-04 16:15:00,
2013-05-04 11:20:00,67.1,37.0,30.02,NW,319,5.0,5.0,33,0.00,,,0.00,Wunderground v.1.15,2013-05-04 16:20:00,
2013-05-04 11:25:00,66.9,37.6,30.02,West,272,5.0,5.0,34,0.00,,,0.00,Wunderground v.1.15,2013-05-04 16:25:00,
2013-05-04 11:30:00,66.9,39.1,30.02,WSW,257,5.0,5.0,36,0.00,,,0.00,Wunderground v.1.15,2013-05-04 16:30:00,
2013-05-04 11:35:00,67.1,38.5,30.02,WNW,295,6.0,7.0,35,0.00,,,0.00,Wunderground v.1.15,2013-05-04 16:35:00,
2013-05-04 11:45:00,67.4,38.8,30.01,WNW,296,5.0,6.0,35,0.00,,,0.00,Wunderground v.1.15,2013-05-04 16:45:00,
2013-05-04 11:50:00,68.1,40.8,30.01,West,272,5.0,5.0,37,0.00,,,0.00,Wunderground v.1.15,2013-05-04 16:50:00,
2013-05-04 11:55:00,68.4,41.1,30.00,West,276,5.0,5.0,37,0.00,,,0.00,Wunderground v.1.15,2013-05-04 16:55:00,
2013-05-04 12:00:00,68.6,39.8,30.00,SW,231,4.0,4.0,35,0.00,,,0.00,Wunderground v.1.15,2013-05-04 17:00:00,
2013-05-04 12:05:00,68.0,37.8,30.00,WSW,240,6.0,6.0,33,0.00,,,0.00,Wunderground v.1.15,2013-05-04 17:05:00,
2013-05-04 12:10:00,68.0,35.4,30.00,WSW,238,6.0,7.0,30,0.00,,,0.00,Wunderground v.1.15,2013-05-04 17:10:00,
2013-05-04 12:20:00,69.2,39.6,30.00,SW,235,4.0,4.0,34,0.00,,,0.00,Wunderground v.1.15,2013-05-04 17:20:00,
2013-05-04 12:25:00,69.3,36.5,30.00,West,278,5.0,5.0,30,0.00,,,0.00,Wunderground v.1.15,2013-05-04 17:25:00,
2013-05-04 12:30:00,69.3,40.5,29.99,NW,309,5.0,5.0,35,0.00,,,0.00,Wunderground v.1.15,2013-05-04 17:30:00,
2013-05-04 12:35:00,69.3,39.7,29.99,WNW,283,5.0,5.0,34,0.00,,,0.00,Wunderground v.1.15,2013-05-04 17:35:00,
2013-05-04 12:40:00,69.1,37.2,29.99,WSW,243,5.0,6.0,31,0.00,,,0.00,Wunderground v.1.15,2013-05-04 17:40:00,
2013-05-04 12:50:00,70.0,38.0,29.98,SW,236,5.0,7.0,31,0.00,,,0.00,Wunderground v.1.15,2013-05-04 17:50:00,
2013-05-04 12:55:00,70.1,38.0,29.98,WSW,243,6.0,7.0,31,0.00,,,0.00,Wunderground v.1.15,2013-05-04 17:55:00,
2013-05-04 13:00:00,70.0,37.1,29.98,WSW,237,6.0,6.0,30,0.00,,,0.00,Wunderground v.1.15,2013-05-04 18:00:00,
2013-05-04 13:05:00,70.1,38.0,29.97,West,266,6.0,6.0,31,0.00,,,0.00,Wunderground v.1.15,2013-05-04 18:05:00,
2013-05-04 13:10:00,69.9,35.3,29.97,WSW,245,6.0,7.0,28,0.00,,,0.00,Wunderground v.1.15,2013-05-04 18:10:00,
2013-05-04 13:15:00,70.3,38.2,29.97,West,269,6.0,7.0,31,0.00,,,0.00,Wunderground v.1.15,2013-05-04 18:15:00,
2013-05-04 13:20:00,70.3,35.6,29.96,SW,224,6.0,9.0,28,0.00,,,0.00,Wunderground v.1.15,2013-05-04 18:20:00,
2013-05-04 13:25:00,70.1,38.9,29.96,WSW,246,9.0,9.0,32,0.00,,,0.00,Wunderground v.1.15,2013-05-04 18:25:00,
2013-05-04 13:30:00,70.3,39.0,29.96,SW,229,9.0,9.0,32,0.00,,,0.00,Wunderground v.1.15,2013-05-04 18:30:00,
2013-05-04 13:35:00,71.0,42.0,29.95,SW,231,7.0,9.0,35,0.00,,,0.00,Wunderground v.1.15,2013-05-04 18:35:00,
2013-05-04 13:45:00,70.7,38.6,29.95,WNW,290,8.0,8.0,31,0.00,,,0.00,Wunderground v.1.15,2013-05-04 18:45:00,
2013-05-04 13:50:00,71.0,39.6,29.95,WNW,290,7.0,7.0,32,0.00,,,0.00,Wunderground v.1.15,2013-05-04 18:50:00,
2013-05-04 13:55:00,71.0,37.1,29.95,WNW,294,6.0,7.0,29,0.00,,,0.00,Wunderground v.1.15,2013-05-04 18:55:00,
2013-05-04 14:00:00,71.2,39.0,29.94,WSW,245,5.0,10.0,31,0.00,,,0.00,Wunderground v.1.15,2013-05-04 19:00:00,
2013-05-04 14:05:00,71.9,42.0,29.94,West,262,6.0,10.0,34,0.00,,,0.00,Wunderground v.1.15,2013-05-04 19:05:00,
2013-05-04 14:10:00,72.0,38.0,29.94,South,177,7.0,7.0,29,0.00,,,0.00,Wunderground v.1.15,2013-05-04 19:10:00,
2013-05-04 14:15:00,71.6,39.3,29.93,WSW,238,8.0,8.0,31,0.00,,,0.00,Wunderground v.1.15,2013-05-04 19:15:00,
2013-05-04 14:25:00,72.5,41.7,29.93,SW,234,5.0,7.0,33,0.00,,,0.00,Wunderground v.1.15,2013-05-04 19:25:00,
2013-05-04 14:30:00,72.8,39.5,29.93,WSW,257,6.0,11.0,30,0.00,,,0.00,Wunderground v.1.15,2013-05-04 19:30:00,
2013-05-04 14:35:00,72.6,39.4,29.93,WSW,247,7.0,11.0,30,0.00,,,0.00,Wunderground v.1.15,2013-05-04 19:35:00,
2013-05-04 14:40:00,72.5,40.1,29.92,WSW,243,7.0,7.0,31,0.00,,,0.00,Wunderground v.1.15,2013-05-04 19:40:00,
2013-05-04 14:45:00,73.2,39.9,29.92,SW,232,6.0,11.0,30,0.00,,,0.00,Wunderground v.1.15,2013-05-04 19:45:00,
2013-05-04 14:50:00,73.3,39.1,29.92,West,262,6.0,11.0,29,0.00,,,0.00,Wunderground v.1.15,2013-05-04 19:50:00,
2013-05-04 15:00:00,73.4,40.9,29.91,WSW,238,7.0,9.0,31,0.00,,,0.00,Wunderground v.1.15,2013-05-04 20:00:00,
2013-05-04 15:05:00,72.9,41.3,29.91,SW,223,7.0,13.0,32,0.00,,,0.00,Wunderground v.1.15,2013-05-04 20:05:00,
2013-05-04 15:10:00,72.8,40.4,29.91,West,274,9.0,9.0,31,0.00,,,0.00,Wunderground v.1.15,2013-05-04 20:10:00,
2013-05-04 15:15:00,73.4,40.1,29.90,WNW,283,8.0,9.0,30,0.00,,,0.00,Wunderground v.1.15,2013-05-04 20:15:00,
2013-05-04 15:20:00,73.1,39.8,29.90,West,274,7.0,8.0,30,0.00,,,0.00,Wunderground v.1.15,2013-05-04 20:20:00,
2013-05-04 15:30:00,73.0,40.6,29.90,SW,233,8.0,8.0,31,0.00,,,0.00,Wunderground v.1.15,2013-05-04 20:30:00,
2013-05-04 15:35:00,72.8,38.7,29.90,West,275,8.0,8.0,29,0.00,,,0.00,Wunderground v.1.15,2013-05-04 20:35:00,
2013-05-04 15:40:00,73.5,41.0,29.89,WSW,240,8.0,8.0,31,0.00,,,0.00,Wunderground v.1.15,2013-05-04 20:40:00,
2013-05-04 15:45:00,74.0,40.6,29.89,SW,215,6.0,9.0,30,0.00,,,0.00,Wunderground v.1.15,2013-05-04 20:45:00,
2013-05-04 15:50:00,73.8,40.4,29.89,WSW,240,7.0,11.0,30,0.00,,,0.00,Wunderground v.1.15,2013-05-04 20:50:00,
2013-05-04 15:55:00,73.3,40.0,29.89,WSW,250,8.0,11.0,30,0.00,,,0.00,Wunderground v.1.15,2013-05-04 20:55:00,
2013-05-04 16:05:00,73.5,43.4,29.88,WSW,248,8.0,10.0,34,0.00,,,0.00,Wunderground v.1.15,2013-05-04 21:05:00,
2013-05-04 16:10:00,72.7,41.1,29.88,SW,228,9.0,9.0,32,0.00,,,0.00,Wunderground v.1.15,2013-05-04 21:10:00,
2013-05-04 16:15:00,72.5,42.5,29.88,WSW,253,10.0,10.0,34,0.00,,,0.00,Wunderground v.1.15,2013-05-04 21:15:00,
2013-05-04 16:20:00,73.0,43.0,29.88,WSW,258,9.0,9.0,34,0.00,,,0.00,Wunderground v.1.15,2013-05-04 21:20:00,
2013-05-04 16:25:00,72.9,43.6,29.88,WSW,253,8.0,14.0,35,0.00,,,0.00,Wunderground v.1.15,2013-05-04 21:25:00,
2013-05-04 16:35:00,73.1,44.5,29.88,WSW,244,8.0,11.0,36,0.00,,,0.00,Wunderground v.1.15,2013-05-04 21:35:00,
2013-05-04 16:40:00,73.1,45.3,29.87,WSW,240,8.0,8.0,37,0.00,,,0.00,Wunderground v.1.15,2013-05-04 21:40:00,
2013-05-04 16:45:00,72.8,44.3,29.87,WNW,282,9.0,11.0,36,0.00,,,0.00,Wunderground v.1.15,2013-05-04 21:45:00,
2013-05-04 16:50:00,72.5,45.4,29.87,WSW,245,10.0,14.0,38,0.00,,,0.00,Wunderground v.1.15,2013-05-04 21:50:00,
2013-05-04 16:55:00,72.3,45.9,29.87,WSW,247,11.0,14.0,39,0.00,,,0.00,Wunderground v.1.15,2013-05-04 21:55:00,
2013-05-04 17:00:00,72.2,46.5,29.87,SSW,213,11.0,11.0,40,0.00,,,0.00,Wunderground v.1.15,2013-05-04 22:00:00,
2013-05-04 17:05:00,72.1,45.8,29.87,WSW,250,11.0,15.0,39,0.00,,,0.00,Wunderground v.1.15,2013-05-04 22:05:00,
2013-05-04 17:10:00,72.3,45.9,29.87,SW,236,10.0,10.0,39,0.00,,,0.00,Wunderground v.1.15,2013-05-04 22:10:00,
2013-05-04 17:15:00,72.5,47.5,29.87,South,174,8.0,10.0,41,0.00,,,0.00,Wunderground v.1.15,2013-05-04 22:15:00,
2013-05-04 17:20:00,72.3,46.6,29.87,West,276,9.0,9.0,40,0.00,,,0.00,Wunderground v.1.15,2013-05-04 22:20:00,
2013-05-04 17:25:00,72.0,46.3,29.87,SW,221,10.0,10.0,40,0.00,,,0.00,Wunderground v.1.15,2013-05-04 22:25:00,
2013-05-04 17:30:00,72.0,46.3,29.87,WSW,245,9.0,12.0,40,0.00,,,0.00,Wunderground v.1.15,2013-05-04 22:30:00,
2013-05-04 17:40:00,71.8,46.2,29.87,WSW,248,10.0,10.0,40,0.00,,,0.00,Wunderground v.1.15,2013-05-04 22:40:00,
2013-05-04 17:45:00,71.6,46.6,29.87,WSW,247,11.0,12.0,41,0.00,,,0.00,Wunderground v.1.15,2013-05-04 22:45:00,
2013-05-04 17:50:00,71.5,46.6,29.86,WSW,253,10.0,13.0,41,0.00,,,0.00,Wunderground v.1.15,2013-05-04 22:50:00,
2013-05-04 17:55:00,71.5,48.4,29.86,West,276,10.0,13.0,44,0.00,,,0.00,Wunderground v.1.15,2013-05-04 22:55:00,
2013-05-04 18:00:00,71.5,47.2,29.86,WSW,247,9.0,9.0,42,0.00,,,0.00,Wunderground v.1.15,2013-05-04 23:00:00,
2013-05-04 18:10:00,71.4,47.1,29.87,WSW,239,8.0,9.0,42,0.00,,,0.00,Wunderground v.1.15,2013-05-04 23:10:00,
2013-05-04 18:15:00,71.1,48.1,29.87,SW,214,9.0,9.0,44,0.00,,,0.00,Wunderground v.1.15,2013-05-04 23:15:00,
2013-05-04 18:20:00,71.0,47.4,29.87,WSW,246,9.0,15.0,43,0.00,,,0.00,Wunderground v.1.15,2013-05-04 23:20:00,
2013-05-04 18:25:00,70.7,47.7,29.87,WSW,244,9.0,15.0,44,0.00,,,0.00,Wunderground v.1.15,2013-05-04 23:25:00,
2013-05-04 18:30:00,70.5,47.5,29.87,WSW,240,10.0,10.0,44,0.00,,,0.00,Wunderground v.1.15,2013-05-04 23:30:00,
2013-05-04 18:35:00,70.5,48.7,29.87,WSW,241,9.0,10.0,46,0.00,,,0.00,Wunderground v.1.15,2013-05-04 23:35:00,
2013-05-04 18:45:00,70.0,50.0,29.87,SW,217,8.0,8.0,49,0.00,,,0.00,Wunderground v.1.15,2013-05-04 23:45:00,
2013-05-04 18:50:00,69.8,49.8,29.87,SSW,209,6.0,6.0,49,0.00,,,0.00,Wunderground v.1.15,2013-05-04 23:50:00,
2013-05-04 18:55:00,69.6,50.1,29.87,SW,230,6.0,6.0,50,0.00,,,0.00,Wunderground v.1.15,2013-05-04 23:55:00,
2013-05-04 19:00:00,69.3,50.4,29.87,WSW,250,7.0,10.0,51,0.00,,,0.00,Wunderground v.1.15,2013-05-05 00:00:00,
2013-05-04 19:05:00,69.2,50.8,29.87,SSW,201,6.0,10.0,52,0.00,,,0.00,Wunderground v.1.15,2013-05-05 00:05:00,
2013-05-04 19:15:00,68.6,50.3,29.87,SW,228,4.0,10.0,52,0.00,,,0.00,Wunderground v.1.15,2013-05-05 00:15:00,
2013-05-04 19:20:00,68.3,50.5,29.87,SW,236,7.0,13.0,53,0.00,,,0.00,Wunderground v.1.15,2013-05-05 00:20:00,
2013-05-04 19:25:00,68.0,51.2,29.87,WSW,238,8.0,13.0,55,0.00,,,0.00,Wunderground v.1.15,2013-05-05 00:25:00,
2013-05-04 19:30:00,67.7,50.9,29.87,SSW,205,6.0,6.0,55,0.00,,,0.00,Wunderground v.1.15,2013-05-05 00:30:00,
2013-05-04 19:35:00,67.3,51.1,29.87,WSW,237,5.0,9.0,56,0.00,,,0.00,Wunderground v.1.15,2013-05-05 00:35:00,
2013-05-04 19:40:00,66.9,51.2,29.88,SW,232,5.0,5.0,57,0.00,,,0.00,Wunderground v.1.15,2013-05-05 00:40:00,
2013-05-04 19:50:00,66.3,51.5,29.88,South,176,4.0,4.0,59,0.00,,,0.00,Wunderground v.1.15,2013-05-05 00:50:00,
2013-05-04 19:55:00,66.0,51.7,29.88,SW,231,4.0,6.0,60,0.00,,,0.00,Wunderground v.1.15,2013-05-05 00:55:00,
2013-05-04 20:00:00,65.7,51.9,29.88,SW,229,4.0,11.0,61,0.00,,,0.00,Wunderground v.1.15,2013-05-05 01:00:00,
2013-05-04 20:05:00,65.7,51.9,29.88,SW,227,5.0,11.0,61,0.00,,,0.00,Wunderground v.1.15,2013-05-05 01:05:00,
2013-05-04 20:10:00,65.4,52.0,29.88,WSW,242,5.0,5.0,62,0.00,,,0.00,Wunderground v.1.15,2013-05-05 01:10:00,
2013-05-04 20:15:00,65.2,52.3,29.88,SW,226,4.0,5.0,63,0.00,,,0.00,Wunderground v.1.15,2013-05-05 01:15:00,
2013-05-04 20:20:00,64.9,52.4,29.88,WSW,238,4.0,6.0,64,0.00,,,0.00,Wunderground v.1.15,2013-05-05 01:20:00,
2013-05-04 20:25:00,64.8,52.3,29.88,SW,229,4.0,6.0,64,0.00,,,0.00,Wunderground v.1.15,2013-05-05 01:25:00,
2013-05-04 20:35:00,64.6,52.6,29.89,SW,225,5.0,5.0,65,0.00,,,0.00,Wunderground v.1.15,2013-05-05 01:35:00,
2013-05-04 20:40:00,64.6,53.0,29.89,SW,217,5.0,7.0,66,0.00,,,0.00,Wunderground v.1.15,2013-05-05 01:40:00,
2013-05-04 20:45:00,64.4,53.2,29.89,WSW,250,5.0,7.0,67,0.00,,,0.00,Wunderground v.1.15,2013-05-05 01:45:00,
2013-05-04 20:50:00,64.4,53.2,29.89,SW,232,5.0,5.0,67,0.00,,,0.00,Wunderground v.1.15,2013-05-05 01:50:00,
2013-05-04 20:55:00,64.3,53.1,29.89,SSW,209,5.0,5.0,67,0.00,,,0.00,Wunderground v.1.15,2013-05-05 01:55:00,
2013-05-04 21:00:00,64.1,53.3,29.89,SW,218,4.0,4.0,68,0.00,,,0.00,Wunderground v.1.15,2013-05-05 02:00:00,
2013-05-04 21:05:00,63.8,53.4,29.89,SW,230,3.0,6.0,69,0.00,,,0.00,Wunderground v.1.15,2013-05-05 02:05:00,
2013-05-04 21:10:00,63.7,53.7,29.90,SSW,194,4.0,4.0,70,0.00,,,0.00,Wunderground v.1.15,2013-05-05 02:10:00,
2013-05-04 21:15:00,63.5,53.5,29.90,WSW,237,4.0,6.0,70,0.00,,,0.00,Wunderground v.1.15,2013-05-05 02:15:00,
2013-05-04 21:25:00,63.4,53.8,29.90,WSW,240,3.0,7.0,71,0.00,,,0.00,Wunderground v.1.15,2013-05-05 02:25:00,
2013-05-04 21:30:00,63.3,54.1,29.90,SW,227,3.0,5.0,72,0.00,,,0.00,Wunderground v.1.15,2013-05-05 02:30:00,
2013-05-04 21:35:00,63.1,53.9,29.90,WSW,247,4.0,5.0,72,0.00,,,0.00,Wunderground v.1.15,2013-05-05 02:35:00,
2013-05-04 21:40:00,63.0,54.2,29.90,SW,225,3.0,3.0,73,0.00,,,0.00,Wunderground v.1.15,2013-05-05 02:40:00,
2013-05-04 21:45:00,62.8,54.0,29.90,WSW,245,3.0,3.0,73,0.00,,,0.00,Wunderground v.1.15,2013-05-05 02:45:00,
2013-05-04 21:55:00,62.6,54.2,29.91,SW,234,3.0,3.0,74,0.00,,,0.00,Wunderground v.1.15,2013-05-05 02:55:00,
2013-05-04 22:00:00,62.4,54.4,29.91,WSW,252,3.0,3.0,75,0.00,,,0.00,Wunderground v.1.15,2013-05-05 03:00:00,
2013-05-04 22:05:00,62.3,54.3,29.91,WSW,238,3.0,3.0,75,0.00,,,0.00,Wunderground v.1.15,2013-05-05 03:05:00,
2013-05-04 22:10:00,62.1,54.4,29.91,SW,233,2.0,2.0,76,0.00,,,0.00,Wunderground v.1.15,2013-05-05 03:10:00,
2013-05-04 22:15:00,62.0,54.7,29.91,SW,227,2.0,3.0,77,0.00,,,0.00,Wunderground v.1.15,2013-05-05 03:15:00,
2013-05-04 22:20:00,61.8,54.5,29.91,WSW,246,2.0,2.0,77,0.00,,,0.00,Wunderground v.1.15,2013-05-05 03:20:00,
2013-05-04 22:30:00,61.6,54.7,29.91,SW,233,2.0,3.0,78,0.00,,,0.00,Wunderground v.1.15,2013-05-05 03:30:00,
2013-05-04 22:35:00,61.3,54.7,29.91,SW,219,2.0,3.0,79,0.00,,,0.00,Wunderground v.1.15,2013-05-05 03:35:00,
2013-05-04 22:40:00,61.1,54.5,29.92,SW,231,2.0,2.0,79,0.00,,,0.00,Wunderground v.1.15,2013-05-05 03:40:00,
2013-05-04 22:45:00,61.0,54.8,29.91,SW,219,2.0,3.0,80,0.00,,,0.00,Wunderground v.1.15,2013-05-05 03:45:00,
2013-05-04 22:50:00,60.9,54.7,29.91,SW,228,2.0,2.0,80,0.00,,,0.00,Wunderground v.1.15,2013-05-05 03:50:00,
2013-05-04 23:00:00,60.5,54.6,29.91,SW,217,2.0,3.0,81,0.00,,,0.00,Wunderground v.1.15,2013-05-05 04:00:00,
2013-05-04 23:05:00,60.4,54.9,29.91,WSW,243,2.0,3.0,82,0.00,,,0.00,Wunderground v.1.15,2013-05-05 04:05:00,
2013-05-04 23:10:00,60.3,55.1,29.91,SW,225,3.0,3.0,83,0.00,,,0.00,Wunderground v.1.15,2013-05-05 04:10:00,
2013-05-04 23:15:00,60.2,55.0,29.91,SW,222,3.0,4.0,83,0.00,,,0.00,Wunderground v.1.15,2013-05-05 04:15:00,
2013-05-04 23:20:00,60.2,55.0,29.91,SW,225,3.0,3.0,83,0.00,,,0.00,Wunderground v.1.15,2013-05-05 04:20:00,
2013-05-04 23:25:00,60.1,55.2,29.90,WSW,251,3.0,4.0,84,0.00,,,0.00,Wunderground v.1.15,2013-05-05 04:25:00,
2013-05-04 23:35:00,60.3,55.4,29.91,WSW,252,2.0,2.0,84,0.00,,,0.00,Wunderground v.1.15,2013-05-05 04:35:00,
2013-05-04 23:40:00,60.3,55.1,29.91,West,262,1.0,1.0,83,0.00,,,0.00,Wunderground v.1.15,2013-05-05 04:40:00,
2013-05-04 23:45:00,60.1,55.2,29.91,NW,305,1.0,1.0,84,0.00,,,0.00,Wunderground v.1.15,2013-05-05 04:45:00,
2013-05-04 23:50:00,59.9,55.4,29.92,NW,304,1.0,1.0,85,0.00,,,0.00,Wunderground v.1.15,2013-05-05 04:50:00,
2013-05-04 23:55:00,59.6,55.1,29.92,NW,312,1.0,1.0,85,0.00,,,0.00,Wunderground v.1.15,2013-05-05 04:55:00,